STARLINK-37128

Last updated on Sun Apr 12 2026 00:02:09 GMT+0000 (Coordinated Universal Time)

1 68385U 26063F 26101.49556135 .00128068 00000+0 65780-3 0 9998 2 68385 97.2832 242.8611 0001102 89.3641 270.7753 15.80875102 2800
UTC large
Height (km)
Speed (km/s)
/
Latitude / Longitude
Inclination (degrees)
Orbital Period (minutes)
Azimuth
Elevation
Range (km)
Doppler Factor

Next 0 passes for location: London (51.5072 / 0.1276)

Sorry there are no passes over London.
STARLINK-37128